﻿測定場所 (Monitoring sites),日付 (Measurement date),時間 (Measurement time),線量率 最大値 (max) μGy/h,線量率 最小値 (min) μGy/h,線量率 平均値 (average) μGy/h,
江戸川 (Edogawa),2021-11-28,23:01～24:00,0.0436,0.0366,0.0403,
江戸川 (Edogawa),2021-11-28,22:01～23:00,0.0439,0.0375,0.0403,
江戸川 (Edogawa),2021-11-28,21:01～22:00,0.0449,0.0372,0.0403,
江戸川 (Edogawa),2021-11-28,20:01～21:00,0.0431,0.0367,0.0402,
江戸川 (Edogawa),2021-11-28,19:01～20:00,0.0427,0.0371,0.0402,
江戸川 (Edogawa),2021-11-28,18:01～19:00,0.0443,0.0369,0.0404,
江戸川 (Edogawa),2021-11-28,17:01～18:00,0.0436,0.0378,0.0404,
江戸川 (Edogawa),2021-11-28,16:01～17:00,0.0431,0.0376,0.0403,
江戸川 (Edogawa),2021-11-28,15:01～16:00,0.0435,0.0377,0.0404,
江戸川 (Edogawa),2021-11-28,14:01～15:00,0.0435,0.0370,0.0402,
江戸川 (Edogawa),2021-11-28,13:01～14:00,0.0430,0.0378,0.0401,
江戸川 (Edogawa),2021-11-28,12:01～13:00,0.0438,0.0373,0.0406,
江戸川 (Edogawa),2021-11-28,11:01～12:00,0.0433,0.0381,0.0405,
江戸川 (Edogawa),2021-11-28,10:01～11:00,0.0428,0.0378,0.0403,
江戸川 (Edogawa),2021-11-28,09:01～10:00,0.0428,0.0377,0.0403,
江戸川 (Edogawa),2021-11-28,08:01～09:00,0.0439,0.0374,0.0405,
江戸川 (Edogawa),2021-11-28,07:01～08:00,0.0440,0.0383,0.0402,
江戸川 (Edogawa),2021-11-28,06:01～07:00,0.0430,0.0370,0.0402,
江戸川 (Edogawa),2021-11-28,05:01～06:00,0.0435,0.0379,0.0405,
江戸川 (Edogawa),2021-11-28,04:01～05:00,0.0437,0.0376,0.0406,
江戸川 (Edogawa),2021-11-28,03:01～04:00,0.0432,0.0373,0.0401,
江戸川 (Edogawa),2021-11-28,02:01～03:00,0.0421,0.0366,0.0399,
江戸川 (Edogawa),2021-11-28,01:01～02:00,0.0431,0.0375,0.0404,
江戸川 (Edogawa),2021-11-28,00:01～01:00,0.0431,0.0369,0.0401,
江戸川 (Edogawa),2021-11-27,23:01～24:00,0.0427,0.0375,0.0399,
江戸川 (Edogawa),2021-11-27,22:01～23:00,0.0432,0.0370,0.0403,
江戸川 (Edogawa),2021-11-27,21:01～22:00,0.0428,0.0368,0.0403,
江戸川 (Edogawa),2021-11-27,20:01～21:00,0.0422,0.0379,0.0405,
江戸川 (Edogawa),2021-11-27,19:01～20:00,0.0436,0.0382,0.0405,
江戸川 (Edogawa),2021-11-27,18:01～19:00,0.0434,0.0378,0.0405,
江戸川 (Edogawa),2021-11-27,17:01～18:00,0.0432,0.0367,0.0405,
江戸川 (Edogawa),2021-11-27,16:01～17:00,0.0436,0.0374,0.0407,
江戸川 (Edogawa),2021-11-27,15:01～16:00,0.0439,0.0377,0.0410,
江戸川 (Edogawa),2021-11-27,14:01～15:00,0.0445,0.0381,0.0411,
江戸川 (Edogawa),2021-11-27,13:01～14:00,0.0434,0.0384,0.0409,
江戸川 (Edogawa),2021-11-27,12:01～13:00,0.0444,0.0386,0.0410,
江戸川 (Edogawa),2021-11-27,11:01～12:00,0.0442,0.0379,0.0411,
江戸川 (Edogawa),2021-11-27,10:01～11:00,0.0450,0.0382,0.0410,
江戸川 (Edogawa),2021-11-27,09:01～10:00,0.0441,0.0374,0.0407,
江戸川 (Edogawa),2021-11-27,08:01～09:00,0.0446,0.0373,0.0407,
江戸川 (Edogawa),2021-11-27,07:01～08:00,0.0422,0.0375,0.0400,
江戸川 (Edogawa),2021-11-27,06:01～07:00,0.0453,0.0380,0.0407,
江戸川 (Edogawa),2021-11-27,05:01～06:00,0.0440,0.0377,0.0404,
江戸川 (Edogawa),2021-11-27,04:01～05:00,0.0441,0.0378,0.0406,
江戸川 (Edogawa),2021-11-27,03:01～04:00,0.0441,0.0391,0.0411,
江戸川 (Edogawa),2021-11-27,02:01～03:00,0.0440,0.0375,0.0410,
江戸川 (Edogawa),2021-11-27,01:01～02:00,0.0441,0.0374,0.0407,
江戸川 (Edogawa),2021-11-27,00:01～01:00,0.0447,0.0384,0.0409,
江戸川 (Edogawa),2021-11-26,23:01～24:00,0.0442,0.0382,0.0409,
江戸川 (Edogawa),2021-11-26,22:01～23:00,0.0437,0.0380,0.0410,
江戸川 (Edogawa),2021-11-26,21:01～22:00,0.0444,0.0378,0.0412,
江戸川 (Edogawa),2021-11-26,20:01～21:00,0.0434,0.0375,0.0404,
江戸川 (Edogawa),2021-11-26,19:01～20:00,0.0439,0.0380,0.0407,
江戸川 (Edogawa),2021-11-26,18:01～19:00,0.0441,0.0372,0.0410,
江戸川 (Edogawa),2021-11-26,17:01～18:00,0.0438,0.0394,0.0413,
江戸川 (Edogawa),2021-11-26,16:01～17:00,0.0438,0.0385,0.0412,
江戸川 (Edogawa),2021-11-26,15:01～16:00,0.0445,0.0380,0.0413,
江戸川 (Edogawa),2021-11-26,14:01～15:00,0.0439,0.0391,0.0412,
江戸川 (Edogawa),2021-11-26,13:01～14:00,0.0439,0.0387,0.0411,
江戸川 (Edogawa),2021-11-26,12:01～13:00,0.0451,0.0390,0.0414,
江戸川 (Edogawa),2021-11-26,11:01～12:00,0.0447,0.0373,0.0415,
江戸川 (Edogawa),2021-11-26,10:01～11:00,0.0445,0.0378,0.0411,
江戸川 (Edogawa),2021-11-26,09:01～10:00,0.0441,0.0382,0.0411,
江戸川 (Edogawa),2021-11-26,08:01～09:00,0.0452,0.0381,0.0412,
江戸川 (Edogawa),2021-11-26,07:01～08:00,0.0436,0.0383,0.0409,
江戸川 (Edogawa),2021-11-26,06:01～07:00,0.0444,0.0381,0.0410,
江戸川 (Edogawa),2021-11-26,05:01～06:00,0.0443,0.0375,0.0407,
江戸川 (Edogawa),2021-11-26,04:01～05:00,0.0439,0.0375,0.0406,
江戸川 (Edogawa),2021-11-26,03:01～04:00,0.0447,0.0374,0.0406,
江戸川 (Edogawa),2021-11-26,02:01～03:00,0.0441,0.0376,0.0406,
江戸川 (Edogawa),2021-11-26,01:01～02:00,0.0434,0.0372,0.0403,
江戸川 (Edogawa),2021-11-26,00:01～01:00,0.0437,0.0375,0.0406,
江戸川 (Edogawa),2021-11-25,23:01～24:00,0.0432,0.0384,0.0408,
江戸川 (Edogawa),2021-11-25,22:01～23:00,0.0446,0.0368,0.0406,
江戸川 (Edogawa),2021-11-25,21:01～22:00,0.0432,0.0376,0.0403,
江戸川 (Edogawa),2021-11-25,20:01～21:00,0.0442,0.0374,0.0407,
江戸川 (Edogawa),2021-11-25,19:01～20:00,0.0443,0.0368,0.0405,
江戸川 (Edogawa),2021-11-25,18:01～19:00,0.0447,0.0365,0.0410,
江戸川 (Edogawa),2021-11-25,17:01～18:00,0.0430,0.0369,0.0405,
江戸川 (Edogawa),2021-11-25,16:01～17:00,0.0448,0.0360,0.0404,
江戸川 (Edogawa),2021-11-25,15:01～16:00,0.0444,0.0377,0.0411,
江戸川 (Edogawa),2021-11-25,14:01～15:00,0.0435,0.0381,0.0408,
江戸川 (Edogawa),2021-11-25,13:01～14:00,0.0444,0.0371,0.0409,
江戸川 (Edogawa),2021-11-25,12:01～13:00,0.0442,0.0381,0.0410,
江戸川 (Edogawa),2021-11-25,11:01～12:00,0.0441,0.0384,0.0410,
江戸川 (Edogawa),2021-11-25,10:01～11:00,0.0436,0.0378,0.0406,
江戸川 (Edogawa),2021-11-25,09:01～10:00,0.0444,0.0374,0.0406,
江戸川 (Edogawa),2021-11-25,08:01～09:00,0.0441,0.0381,0.0409,
江戸川 (Edogawa),2021-11-25,07:01～08:00,0.0431,0.0366,0.0405,
江戸川 (Edogawa),2021-11-25,06:01～07:00,0.0452,0.0382,0.0407,
江戸川 (Edogawa),2021-11-25,05:01～06:00,0.0438,0.0367,0.0402,
江戸川 (Edogawa),2021-11-25,04:01～05:00,0.0433,0.0372,0.0400,
江戸川 (Edogawa),2021-11-25,03:01～04:00,0.0436,0.0378,0.0405,
江戸川 (Edogawa),2021-11-25,02:01～03:00,0.0436,0.0383,0.0407,
江戸川 (Edogawa),2021-11-25,01:01～02:00,0.0427,0.0374,0.0401,
江戸川 (Edogawa),2021-11-25,00:01～01:00,0.0438,0.0380,0.0404,
江戸川 (Edogawa),2021-11-24,23:01～24:00,0.0435,0.0368,0.0400,
江戸川 (Edogawa),2021-11-24,22:01～23:00,0.0445,0.0375,0.0401,
江戸川 (Edogawa),2021-11-24,21:01～22:00,0.0437,0.0376,0.0403,
江戸川 (Edogawa),2021-11-24,20:01～21:00,0.0442,0.0371,0.0403,
江戸川 (Edogawa),2021-11-24,19:01～20:00,0.0443,0.0376,0.0402,
江戸川 (Edogawa),2021-11-24,18:01～19:00,0.0435,0.0380,0.0401,
江戸川 (Edogawa),2021-11-24,17:01～18:00,0.0434,0.0377,0.0405,
江戸川 (Edogawa),2021-11-24,16:01～17:00,0.0453,0.0382,0.0408,
江戸川 (Edogawa),2021-11-24,15:01～16:00,0.0437,0.0370,0.0408,
江戸川 (Edogawa),2021-11-24,14:01～15:00,0.0447,0.0382,0.0411,
江戸川 (Edogawa),2021-11-24,13:01～14:00,0.0449,0.0386,0.0413,
江戸川 (Edogawa),2021-11-24,12:01～13:00,0.0446,0.0384,0.0412,
江戸川 (Edogawa),2021-11-24,11:01～12:00,0.0443,0.0382,0.0412,
江戸川 (Edogawa),2021-11-24,10:01～11:00,0.0444,0.0381,0.0410,
江戸川 (Edogawa),2021-11-24,09:01～10:00,0.0444,0.0380,0.0407,
江戸川 (Edogawa),2021-11-24,08:01～09:00,0.0427,0.0367,0.0404,
江戸川 (Edogawa),2021-11-24,07:01～08:00,0.0426,0.0377,0.0406,
江戸川 (Edogawa),2021-11-24,06:01～07:00,0.0426,0.0377,0.0403,
江戸川 (Edogawa),2021-11-24,05:01～06:00,0.0446,0.0376,0.0408,
江戸川 (Edogawa),2021-11-24,04:01～05:00,0.0430,0.0378,0.0406,
江戸川 (Edogawa),2021-11-24,03:01～04:00,0.0451,0.0380,0.0406,
江戸川 (Edogawa),2021-11-24,02:01～03:00,0.0438,0.0383,0.0406,
江戸川 (Edogawa),2021-11-24,01:01～02:00,0.0444,0.0384,0.0414,
江戸川 (Edogawa),2021-11-24,00:01～01:00,0.0437,0.0383,0.0410,
江戸川 (Edogawa),2021-11-23,23:01～24:00,0.0442,0.0387,0.0413,
江戸川 (Edogawa),2021-11-23,22:01～23:00,0.0447,0.0391,0.0415,
江戸川 (Edogawa),2021-11-23,21:01～22:00,0.0450,0.0377,0.0416,
江戸川 (Edogawa),2021-11-23,20:01～21:00,0.0430,0.0375,0.0408,
江戸川 (Edogawa),2021-11-23,19:01～20:00,0.0442,0.0384,0.0411,
江戸川 (Edogawa),2021-11-23,18:01～19:00,0.0441,0.0386,0.0413,
江戸川 (Edogawa),2021-11-23,17:01～18:00,0.0436,0.0389,0.0413,
江戸川 (Edogawa),2021-11-23,16:01～17:00,0.0450,0.0392,0.0414,
江戸川 (Edogawa),2021-11-23,15:01～16:00,0.0445,0.0388,0.0413,
江戸川 (Edogawa),2021-11-23,14:01～15:00,0.0453,0.0392,0.0416,
江戸川 (Edogawa),2021-11-23,13:01～14:00,0.0443,0.0380,0.0413,
江戸川 (Edogawa),2021-11-23,12:01～13:00,0.0445,0.0384,0.0416,
江戸川 (Edogawa),2021-11-23,11:01～12:00,0.0446,0.0381,0.0416,
江戸川 (Edogawa),2021-11-23,10:01～11:00,0.0434,0.0387,0.0414,
江戸川 (Edogawa),2021-11-23,09:01～10:00,0.0455,0.0376,0.0413,
江戸川 (Edogawa),2021-11-23,08:01～09:00,0.0434,0.0382,0.0412,
江戸川 (Edogawa),2021-11-23,07:01～08:00,0.0446,0.0376,0.0411,
江戸川 (Edogawa),2021-11-23,06:01～07:00,0.0438,0.0382,0.0412,
江戸川 (Edogawa),2021-11-23,05:01～06:00,0.0454,0.0390,0.0418,
江戸川 (Edogawa),2021-11-23,04:01～05:00,0.0442,0.0391,0.0421,
江戸川 (Edogawa),2021-11-23,03:01～04:00,0.0443,0.0389,0.0421,
江戸川 (Edogawa),2021-11-23,02:01～03:00,0.0456,0.0387,0.0421,
江戸川 (Edogawa),2021-11-23,01:01～02:00,0.0465,0.0395,0.0430,
江戸川 (Edogawa),2021-11-23,00:01～01:00,0.0522,0.0420,0.0470,
江戸川 (Edogawa),2021-11-22,23:01～24:00,0.0637,0.0481,0.0550,
江戸川 (Edogawa),2021-11-22,22:01～23:00,0.0729,0.0618,0.0678,
江戸川 (Edogawa),2021-11-22,21:01～22:00,0.0687,0.0408,0.0530,
江戸川 (Edogawa),2021-11-22,20:01～21:00,0.0460,0.0397,0.0428,
江戸川 (Edogawa),2021-11-22,19:01～20:00,0.0479,0.0415,0.0448,
江戸川 (Edogawa),2021-11-22,18:01～19:00,0.0510,0.0425,0.0466,
江戸川 (Edogawa),2021-11-22,17:01～18:00,0.0526,0.0463,0.0490,
江戸川 (Edogawa),2021-11-22,16:01～17:00,0.0522,0.0449,0.0481,
江戸川 (Edogawa),2021-11-22,15:01～16:00,0.0482,0.0426,0.0454,
江戸川 (Edogawa),2021-11-22,14:01～15:00,0.0460,0.0391,0.0421,
江戸川 (Edogawa),2021-11-22,13:01～14:00,0.0456,0.0383,0.0417,
江戸川 (Edogawa),2021-11-22,12:01～13:00,0.0452,0.0391,0.0417,
江戸川 (Edogawa),2021-11-22,11:01～12:00,0.0449,0.0370,0.0412,
江戸川 (Edogawa),2021-11-22,10:01～11:00,0.0440,0.0384,0.0408,
江戸川 (Edogawa),2021-11-22,09:01～10:00,0.0437,0.0380,0.0411,
江戸川 (Edogawa),2021-11-22,08:01～09:00,0.0446,0.0380,0.0409,
江戸川 (Edogawa),2021-11-22,07:01～08:00,0.0441,0.0386,0.0412,
江戸川 (Edogawa),2021-11-22,06:01～07:00,0.0452,0.0371,0.0421,
江戸川 (Edogawa),2021-11-22,05:01～06:00,0.0502,0.0419,0.0459,
江戸川 (Edogawa),2021-11-22,04:01～05:00,0.0558,0.0475,0.0514,
江戸川 (Edogawa),2021-11-22,03:01～04:00,0.0571,0.0484,0.0534,
江戸川 (Edogawa),2021-11-22,02:01～03:00,0.0613,0.0515,0.0568,
江戸川 (Edogawa),2021-11-22,01:01～02:00,0.0627,0.0529,0.0569,
江戸川 (Edogawa),2021-11-22,00:01～01:00,0.0591,0.0520,0.0553,
